Location: Branche des Alpilles
(43.6087°N, 4.6976°E)
Time: 10:13:28
(UTC+00:00)

FENGYUN 1C DEB - Pass Details

Date: 26 June 2021
Orbit: 782 x 878 km, 99.7° (Epoch: 28 July)

Event Time Altitude Azimuth Distance (km) Brightness Sun altitude
Exits shadow 01:59:25 26° 203° (SSW) 1,541 ? -16.2°
Maximum altitude 02:01:58 44° 259° (W) 1,091 ? -15.9°
Drops below altitude 10° 02:06:55 10° 332° (NNW) 2,359 ? -15.4°
Sets 02:09:20 0° 339° (NNW) 3,286 ? -15.2°
